Regional Weather Roundup
Issued by NWS

Home | Current Version | Previous Version | Graphics & Text | Print | Product List | Glossary On
Versions: 1 2 3 4 5 6 7 8 9 10 11 12 13 14 15 16 17 18 19 20 21 22 23 24 25 26 27 28 29 30 31 32 33 34 35 36 37 38 39 40 41 42 43 44 45 46 47 48 49 50
000
ASUS43 KLOT 031800
RWRIL

ILLINOIS REGIONAL WEATHER ROUNDUP
NATIONAL WEATHER SERVICE CHICAGO/ROMEOVILLE IL
1200 PM CST TUE MAR 03 2015

NOTE: "FAIR" INDICATES FEW OR NO CLOUDS BELOW 12,000 FEET WITH NO
SIGNIFICANT WEATHER AND/OR OBSTRUCTIONS TO VISIBILITY.

* THESE STATIONS ARE NOT UNDER NWS QUALITY CONTROL. THEY ALSO MAY NOT
  REPORT WEATHER SUCH AS PRECIPITATION OR FOG.

ILZ001-002-007-009-015-016-024-031900-
NORTHWEST ILLINOIS

CITY           SKY/WX    TMP DP  RH WIND       PRES   REMARKS
MOLINE         CLOUDY    33  30  88 SW14      29.70R FOG     WCI  23
6HR MIN TEMP:  28; 6HR MAX TEMP:  33; 6HR PCP:  0.05;

STERLING*      CLOUDY    34  30  86 W10       29.68S WCI  26
$$

ILZ003-004-008-010-011-017-018-031900-
NORTH CENTRAL ILLINOIS

CITY           SKY/WX    TMP DP  RH WIND       PRES   REMARKS
ROCKFORD       DRIZZLE   32  29  88 SW10      29.66F FOG     WCI  24
6HR MIN TEMP:  25; 6HR MAX TEMP:  32; 6HR PCP:  0.20;

FREEPORT*      CLOUDY    30  28  94 SW9       29.67F FOG     WCI  22
DE KALB*       CLOUDY    31  29  96 CALM      29.65F FOG
$$

ILZ005-006-012>014-019>023-031900-
NORTHEAST ILLINOIS

CITY           SKY/WX    TMP DP  RH WIND       PRES   REMARKS
CHICAGO-OHARE  FRZ DRZL  32  30  92 SW20G26   29.65F FOG     WCI  20
6HR MIN TEMP:  24; 6HR MAX TEMP:  32; 6HR PCP:  0.03;

CHICAGO-MIDWAY CLOUDY    34  30  85 SW17G25   29.67F FOG     WCI  23
6HR MIN TEMP:  27; 6HR MAX TEMP:  34; 6HR PCP:  0.05;

AURORA         FOG       33  31  92 SW15      29.67F VSB 1   WCI  23
6HR MIN TEMP:  26; 6HR MAX TEMP:  33; 6HR PCP:  0.04;

LANSING*       DRIZZLE   32  31  97 S15       29.67F WCI  22
WAUKEGAN       CLOUDY    31  31 100 SW16      29.63F FOG     WCI  20
6HR MIN TEMP:  25; 6HR MAX TEMP:  31;

DUPAGE AIRPORT MIX PCPN  32  30  92 SW16      29.64F FOG     WCI  21
6HR MIN TEMP:  27; 6HR MAX TEMP:  32; 6HR PCP:  0.01;

WHEELING       CLOUDY    32  30  92 S13       29.66F FOG     WCI  22
6HR MIN TEMP:  24; 6HR MAX TEMP:  32; 6HR PCP: TRACE;

NORTHERLY ISL    N/A     32  30  93 S16         N/A  WCI  21
$$

LMZ740>746-031900-
SOUTHERN LAKE MICHIGAN

STATION/POSITION SKY/WX   TEMP    WIND        PRES    VSBY  WAVE
                          AIR SEA DIR/SP/G                  HT/PER
                          (F)     (DEG/KT/KT) (MB)    (MI)  (FT/S)
WAUKEGAN HARBOR            30                   N/A
HARRISON CRIB              31     190/ 13/ 29   N/A
BURNHAM HARBOR             32     200/ 10       N/A
CALUMET HARBOR             32     190/ 13/ 18 1003.6F
MICHIGAN CITY              31     160/ 13/ 19   N/A
$$

ILZ025>027-034>036-040-047-049-050-058-095>099-031900-
WEST-CENTRAL ILLINOIS

CITY           SKY/WX    TMP DP  RH WIND       PRES   REMARKS
QUINCY         FOG       37  35  92 SW15      29.76R VSB 1   WCI  28
MACOMB*        CLOUDY    34  33  99 SW13      29.76R FOG     WCI  25
$$

ILZ028>032-037-038-041>044-048-051>054-059>061-031900-
CENTRAL ILLINOIS

CITY           SKY/WX    TMP DP  RH WIND       PRES   REMARKS
DECATUR        FOG       37  36  96 SW15      29.78R VSB 1   WCI  28
PEORIA         FOG       35  32  88 SW13      29.73F VSB 3/4 WCI  26
6HR MIN TEMP:  30; 6HR MAX TEMP:  35; 6HR PCP:  0.02;

SPRINGFIELD    CLOUDY    37  35  92 S16       29.76F FOG     WCI  28
6HR MIN TEMP:  30; 6HR MAX TEMP:  37; 6HR PCP:  0.01;

TAYLORVILLE    NOT AVBL
$$

ILZ033-039-045-046-055>057-062-063-031900-
EAST-CENTRAL ILLINOIS

CITY           SKY/WX    TMP DP  RH WIND       PRES   REMARKS
CHAMPAIGN      LGT RAIN  35  34  96 S18       29.76R VSB 1/2 WCI  24
MATTOON        SNOW      36  36 100 S14       29.79R VSB 1/4 WCI  27
$$

ILZ079-100>102-031900-
SOUTHWEST ILLINOIS

CITY           SKY/WX    TMP DP  RH WIND       PRES   REMARKS
ALTON          CLOUDY    39  37  93 S12       29.81R FOG     WCI  32
BELLEVILLE     CLOUDY    41  41 100 VRB7      29.80R
CAHOKIA*       CLOUDY    47  42  83 SW9       29.80S
$$

ILZ064>066-069>071-074>076-080>082-084>086-088>090-092>094-031900-
SOUTH-CENTRAL ILLINOIS

CITY           SKY/WX    TMP DP  RH WIND       PRES   REMARKS
CARBONDALE     CLOUDY    43  41  93 S16       29.88S
6HR MIN TEMP:  37; 6HR MAX TEMP:  43; 6HR PCP:  0.02;

MARION         CLOUDY    45  43  93 S17       29.90F
MT. VERNON     CLOUDY    41  37  87 SW18      29.85F
$$

ILZ067-068-072-073-078-083-087-091-031900-
SOUTHEAST ILLINOIS

CITY           SKY/WX    TMP DP  RH WIND       PRES   REMARKS
LAWRENCEVILLE  CLOUDY    40  39  97 S14       29.84F FOG
$$

ABBREVIATIONS USED IN REMARKS
   TC - TEMPERATURE IN CELSIUS
  WCI - WIND CHILL INDEX
   HX - HEAT INDEX
  VSB - VISIBILITY
$$




USA.gov is the U.S. government's official web portal to all federal, state and local government web resources and services.